AE7VB Weather Reports


time (UTC)temp
F
wind
direction
speed
knots
gust
knots
rain 1hr
in
rain 24hr
in
rain mn
in
humidity
%
barometer
mb
20260503210210 74 11 0.9 6.1 0.00 0.00 0.00 33 1018.5
20260503205209 74 338 0.9 5.2 0.00 0.00 0.00 33 1019.0
20260503204208 74 319 0.9 5.2 0.00 0.00 0.00 34 1019.1
20260503203208 74 255 0.9 5.2 0.00 0.00 0.00 32 1019.0
20260503202207 74 295 1.7 4.3 0.00 0.00 0.00 31 1019.0
20260503201206 74 347 1.7 4.3 0.00 0.00 0.00 35 1019.3
20260503200205 74 16 0.9 4.3 0.00 0.00 0.00 35 1019.3
20260503195203 74 332 0.9 3.5 0.00 0.00 0.00 35 1019.5
20260503194131 73 31 0.9 3.5 0.00 0.00 0.00 35 1019.4
20260503193130 72 275 1.7 3.5 0.00 0.00 0.00 32 1019.4
20260503192129 72 110 0.9 3.5 0.00 0.00 0.00 38 1019.8
20260503191128 72 68 0.9 3.5 0.00 0.00 0.00 36 1019.8
20260503190127 72 14 1.7 3.5 0.00 0.00 0.00 36 1019.8
20260503185126 72 32 0.9 3.5 0.00 0.00 0.00 40 1020.1
20260503184124 72 32 1.7 3.5 0.00 0.00 0.00 37 1020.1
20260503183052 71 107 1.7 4.3 0.00 0.00 0.00 39 1020.1
20260503182052 70 18 2.6 4.3 0.00 0.00 0.00 39 1020.0
20260503181051 70 23 1.7 4.3 0.00 0.00 0.00 41 1020.4
20260503180019 70 54 0.9 3.5 0.00 0.00 0.00 41 1020.4
20260503175018 69 73 0.9 3.5 0.00 0.00 0.00 41 1020.4
20260503174017 70 31 0.9 3.5 0.00 0.00 0.00 41 1020.7
20260503173016 69 34 1.7 3.5 0.00 0.00 0.00 45 1020.7
20260503172016 67 74 0.0 2.6 0.00 0.00 0.00 48 1020.6
20260503171015 65 66 0.9 2.6 0.00 0.00 0.00 50 1020.3
20260503150656 58 24 0.9 3.5 0.00 0.00 0.00 57 1019.9
20260503130541 46 131 1.7 2.6 0.00 0.00 0.00 75 1020.3
20260503110459 48 147 0.0 3.5 0.00 0.00 0.00 70 1020.9
20260503090314 51 218 0.9 2.6 0.00 0.00 0.00 65 1020.7
20260503081205 52 222 1.7 4.3 0.00 0.00 0.00 61 1020.9
20260503080204 51 223 1.7 5.2 0.00 0.00 0.00 63 1020.5
20260503072200 52 163 0.0 0.0 0.00 0.00 0.00 64 1020.4
20260503071159 52 163 0.0 0.0 0.00 0.00 0.00 63 1020.4
20260503070158 52 163 0.0 0.0 0.00 0.00 0.00 63 1020.3
20260503060121 54 163 0.0 0.0 0.00 0.00 0.00 59 1020.3
20260503055121 54 162 0.0 0.0 0.00 0.00 0.00 59 1020.2
20260503054120 54 151 0.0 1.7 0.00 0.00 0.00 59 1020.2
20260503053119 54 152 0.0 4.3 0.00 0.00 0.00 58 1020.1
20260503052118 54 151 1.7 4.3 0.00 0.00 0.00 57 1020.0
20260503051045 54 153 0.9 4.3 0.00 0.00 0.00 56 1020.0
20260503050043 54 153 1.7 4.3 0.00 0.00 0.00 56 1019.9
20260503045042 55 174 0.9 2.6 0.00 0.00 0.00 55 1019.7
20260503044042 55 175 1.7 2.6 0.00 0.00 0.00 53 1019.7
20260503043040 56 178 0.9 2.6 0.00 0.00 0.00 52 1019.8
20260503042039 56 180 0.9 2.6 0.00 0.00 0.00 50 1019.3
20260503041037 56 183 0.9 2.6 0.00 0.00 0.00 49 1019.2
20260503040036 56 184 1.7 2.6 0.00 0.00 0.00 49 1019.1
20260503035004 56 185 0.9 2.6 0.00 0.00 0.00 49 1018.7
20260503034003 56 185 0.9 2.6 0.00 0.00 0.00 49 1018.7
20260503033002 57 194 0.9 2.6 0.00 0.00 0.00 50 1018.7
20260503032000 57 195 0.9 2.6 0.00 0.00 0.00 51 1018.4
20260503031000 58 259 0.9 1.7 0.00 0.00 0.00 50 1018.5
20260503025958 60 259 0.9 1.7 0.00 0.00 0.00 48 1018.6
20260503024926 61 259 0.9 1.7 0.00 0.00 0.00 48 1018.8
20260503023926 63 287 0.0 1.7 0.00 0.00 0.00 46 1018.7
20260503022925 66 287 0.9 1.7 0.00 0.00 0.00 42 1019.2
20260503021923 68 288 0.0 0.9 0.00 0.00 0.00 42 1019.5
20260503020922 70 289 0.0 1.7 0.00 0.00 0.00 27 1019.2
20260503015850 71 288 0.9 3.5 0.00 0.00 0.00 26 1019.2
20260503014848 72 288 0.9 3.5 0.00 0.00 0.00 25 1019.1
20260503013847 72 292 0.9 2.6 0.00 0.00 0.00 27 1019.0
20260503012815 72 340 0.0 1.7 0.00 0.00 0.00 25 1018.9
20260503011814 72 341 0.9 1.7 0.00 0.00 0.00 24 1018.9
20260503010812 73 303 0.9 3.5 0.00 0.00 0.00 25 1019.1
20260503005810 73 294 1.7 3.5 0.00 0.00 0.00 24 1019.1
20260503004809 72 312 1.7 2.6 0.00 0.00 0.00 24 1019.0
20260503003808 73 339 0.9 4.3 0.00 0.00 0.00 26 1019.1
20260503002807 73 297 1.7 4.3 0.00 0.00 0.00 27 1019.2
20260503001806 72 296 1.7 4.3 0.00 0.00 0.00 28 1019.1
20260503000805 72 358 1.7 3.5 0.00 0.00 0.00 28 1019.1
20260502235804 72 15 0.9 3.5 0.00 0.00 0.00 29 1019.1
20260502234804 72 14 0.9 3.5 0.00 0.00 0.00 35 1019.2
20260502233802 72 52 0.9 3.5 0.00 0.00 0.00 36 1019.2
20260502232728 72 358 0.9 8.7 0.00 0.00 0.00 35 1019.2
20260502231727 73 8 1.7 8.7 0.00 0.00 0.00 38 1019.7
20260502230726 73 297 1.7 7.8 0.00 0.00 0.00 39 1019.9
20260502225726 73 294 0.9 7.8 0.00 0.00 0.00 37 1020.1
20260502224724 74 17 0.9 6.1 0.00 0.00 0.00 35 1020.3
20260502223723 74 275 2.6 7.8 0.00 0.00 0.00 33 1020.3
20260502222619 74 284 1.7 8.7 0.00 0.00 0.00 27 1020.5
20260502221618 74 281 2.6 7.8 0.00 0.00 0.00 29 1020.4
20260502220617 74 294 3.5 8.7 0.00 0.00 0.00 31 1020.3
20260502215616 74 235 2.6 8.7 0.00 0.00 0.00 29 1020.4
20260502214615 74 296 1.7 8.7 0.00 0.00 0.00 29 1020.4
20260502213614 74 299 2.6 6.1 0.00 0.00 0.00 32 1020.5
20260502212613 74 282 2.6 8.7 0.00 0.00 0.00 36 1020.6
20260502211612 74 276 1.7 7.8 0.00 0.00 0.00 34 1020.6